Wind_Speed
56 56 58 59 59 58 57 58 59 55 54 54 54 54 54 52 49 48 46 49 48 48 54 49 51 53 54 55 55 57 55 55 54 50 50 51 51 50 44 42 44 41 38
56 56 57 55 52 52 54 54 55 55 54 53 52 50 52 52 49 47 47 48 51 52 55 55 57 58 58 58 60 60 57 57 57 60 58 57 57 56 53 51 51 51 50
54 52 45 47 50 49 49 49 46 47 52 55 52 50 52 54 54 52 53 55 56 60 62 62 61 62 59 59 59 59 59 61 60 62 62 65 65 64 64 61 60 60 57
53 50 46 45 47 46 48 46 46 50 51 53 52 50 50 51 47 45 45 48 51 55 58 59 59 57 56 57 56 56 58 58 59 59 61 64 67 69 66 66 63 64 64
51 49 48 47 48 50 51 52 50 52 50 50 53 54 54 56 53 50 47 47 49 54 57 57 57 58 59 58 58 57 57 59 59 61 62 64 66 69 72 74 75 73 66
49 49 49 49 52 52 53 56 56 55 53 53 53 49 49 52 42 44 48 51 54 55 55 56 56 56 56 56 57 59 61 62 64 66 67 69 71 74 76 80 81 81 79
50 50 50 49 49 52 53 54 51 50 53 56 56 59 59 48 47 50 52 53 54 56 57 57 57 57 58 60 62 65 70 75 75 76 77 79 77 81 82 84 84 86 85
52 52 52 52 52 53 53 52 51 54 54 54 50 49 50 49 50 52 54 55 56 57 59 60 61 63 66 68 71 74 77 81 82 84 87 89 93 93 95 95 97 96 93
49 51 52 52 50 51 51 49 52 53 53 52 52 52 53 52 52 53 55 56 58 61 62 64 66 70 73 75 77 80 84 87 91 95 99 103 106 107 108 108 109 109 106
48 47 48 49 51 54 48 51 53 53 54 54 55 55 56 56 57 57 58 60 62 64 68 71 74 78 81 84 89 92 94 97 99 101 106 110 113 115 119 123 121 118 115
49 50 47 46 57 53 50 52 54 55 57 58 58 59 61 60 60 61 63 65 67 70 73 78 82 86 89 93 98 101 103 106 109 112 115 118 120 115 100 87 80 81 85
51 48 46 53 57 58 55 57 58 58 59 60 61 63 63 62 63 65 68 71 74 77 81 84 88 93 96 99 102 105 109 112 114 117 112 97 85 78 72 69 67 65 66
52 50 52 55 62 62 57 58 61 61 61 62 63 63 64 66 68 71 74 77 81 84 88 91 94 97 99 101 105 109 112 111 100 84 76 72 67 64 63 62 61 60 57
53 54 55 57 59 59 60 62 63 62 63 62 63 65 68 70 73 76 80 83 86 89 93 95 96 98 101 105 107 101 88 75 70 67 63 63 64 64 65 65 62 60 57
56 57 58 59 60 60 61 62 63 63 64 64 65 68 72 75 78 80 83 87 90 93 93 96 99 100 101 97 84 72 68 63 62 63 65 66 66 67 69 70 69 66 63
57 58 60 60 61 61 62 62 63 63 65 67 69 73 76 78 81 84 87 91 92 94 98 99 99 98 88 75 69 62 60 61 64 65 68 70 71 71 69 68 69 68 66
60 60 61 61 61 61 61 61 63 65 68 71 74 76 79 82 85 88 90 91 95 97 97 97 90 77 69 64 58 58 61 64 66 69 71 73 72 70 68 65 64 64 62
58 59 60 61 60 60 62 64 67 70 73 75 78 80 82 86 88 89 91 94 94 94 91 79 69 65 60 58 59 61 64 67 70 72 73 72 70 66 64 65 66 66 64
58 58 58 59 61 64 66 69 72 74 77 80 82 84 86 86 88 90 90 91 89 79 69 65 63 61 59 59 61 63 66 69 71 73 72 70 67 65 66 67 67 66 66
56 59 61 63 66 69 72 74 75 78 81 83 84 84 85 83 85 88 86 76 68 66 63 60 59 58 60 61 63 66 68 70 72 72 70 68 66 67 67 68 68 65 66
61 64 66 69 72 74 75 77 79 81 82 83 83 82 83 84 80 70 67 66 61 59 59 57 57 59 61 63 66 68 69 71 72 70 68 67 66 67 68 69 68 71 69
67 70 72 73 73 75 77 80 82 82 81 79 81 82 76 67 65 64 60 57 58 58 55 55 57 60 62 64 67 68 70 71 69 68 66 66 67 68 69 69 70 68 64
69 70 71 73 76 79 79 78 77 77 79 77 71 64 63 62 60 59 58 56 54 53 55 57 60 62 64 65 68 71 71 69 68 67 66 66 68 69 70 69 70 64 59
73 75 76 75 74 73 74 75 74 71 65 60 60 59 58 57 56 55 53 52 53 55 58 60 63 64 64 67 70 71 70 68 68 68 69 69 69 70 71 71 66 61 55
70 68 69 69 69 68 66 62 58 56 57 56 55 55 55 54 54 53 53 53 55 57 60 62 63 64 68 69 69 68 68 69 70 71 70 70 70 72 72 66 62 58 52
61 61 60 58 55 54 54 55 55 55 54 54 54 54 55 55 54 53 53 55 57 59 59 62 66 68 67 68 68 67 69 70 70 71 71 72 73 72 67 64 61 55 49
Wind_Direction
284 285 286 285 285 285 283 280 278 276 275 277 277 277 278 278 276 278 280 282 280 278 282 288 289 289 288 291 291 290 288 290 294 292 288 286 286 284 283 283 283 279 279
287 286 285 285 280 276 273 273 273 273 275 276 278 279 278 277 275 275 278 279 282 282 284 285 285 286 288 289 287 287 286 285 286 288 288 285 285 282 279 278 277 278 281
283 283 276 270 270 269 270 274 279 282 281 275 277 284 280 277 276 277 280 282 280 280 283 284 283 284 286 285 285 283 283 282 283 283 283 285 283 278 278 278 278 277 276
282 278 274 269 270 273 276 278 281 283 282 283 286 285 288 291 283 280 287 287 286 283 283 284 284 284 285 286 286 288 287 287 289 290 288 284 283 283 283 279 273 274 274
278 278 276 273 274 275 277 279 277 275 279 282 287 287 285 284 284 282 290 290 285 286 286 286 287 288 289 290 291 290 290 290 290 291 291 291 290 289 288 287 285 280 275
276 276 276 275 276 270 272 274 273 276 279 283 286 285 288 289 294 289 285 284 285 286 287 288 288 288 288 288 289 289 290 289 289 288 289 288 288 287 288 288 287 285 283
274 274 274 274 274 274 274 274 278 280 286 285 288 290 289 292 293 288 285 285 287 287 287 286 286 285 285 285 287 290 292 294 295 293 293 293 289 286 285 286 287 286 283
273 273 273 274 275 275 278 281 284 285 286 289 292 293 293 292 289 287 286 286 286 286 286 285 285 286 286 286 287 290 293 293 293 293 294 294 294 292 291 289 286 284 282
277 276 278 277 277 279 277 280 287 287 290 293 292 292 291 289 288 286 285 285 287 289 289 289 291 292 291 291 293 293 294 295 295 296 297 297 297 295 293 290 288 285 283
275 276 277 276 282 274 281 288 286 289 291 290 289 289 289 289 288 288 288 289 289 289 293 295 296 296 297 297 298 298 297 296 295 295 295 297 298 297 296 294 291 288 284
275 273 276 269 280 266 285 286 287 288 287 287 288 288 288 289 289 288 288 289 290 293 295 297 298 299 300 301 300 299 299 299 298 298 298 297 296 296 293 290 289 288 286
275 272 273 271 258 266 284 284 286 286 287 288 288 288 288 287 287 288 289 291 294 296 297 298 300 301 300 301 303 304 303 302 302 300 300 298 295 293 293 292 290 288 288
275 272 266 270 265 284 284 285 286 287 287 287 287 287 287 289 291 292 294 296 297 299 300 301 301 302 303 304 304 304 303 302 302 300 299 299 298 297 294 292 291 288 286
273 272 271 272 275 280 283 284 285 285 285 285 285 287 289 292 293 295 297 297 299 301 301 302 301 301 303 304 304 304 302 301 301 300 299 299 298 298 298 296 293 289 285
269 271 273 275 277 278 280 282 283 283 283 284 286 288 290 291 294 295 296 298 299 299 300 300 300 302 304 305 302 300 300 299 299 299 300 300 300 300 299 298 296 293 289
269 270 271 273 274 277 279 281 281 282 283 284 286 288 291 292 293 295 296 297 298 298 299 300 302 303 303 300 299 298 298 299 300 300 302 302 302 302 300 298 296 294 290
268 271 273 274 277 279 280 282 283 283 284 286 287 288 289 291 293 294 295 297 297 298 300 302 303 301 299 298 297 298 299 300 301 302 304 305 304 304 303 300 298 296 293
272 273 275 276 278 280 280 280 282 284 285 285 286 288 289 291 293 295 296 297 299 301 302 301 300 300 299 298 297 298 300 301 302 304 306 307 306 304 303 302 301 299 296
272 275 277 277 277 278 281 283 283 283 284 285 286 287 290 292 294 296 297 299 300 301 299 299 298 298 299 299 299 300 301 302 304 306 308 307 306 305 305 305 304 302 299
274 275 275 275 276 278 279 280 280 281 282 285 287 290 293 296 297 298 300 300 299 299 299 298 298 298 299 299 299 301 302 304 306 308 307 306 305 306 306 307 306 303 301
273 272 272 273 273 275 276 278 280 282 285 287 291 294 295 296 297 297 298 298 297 296 297 296 296 297 298 299 301 303 304 307 307 306 306 306 306 307 307 308 307 307 305
269 269 271 273 275 277 279 280 282 285 290 293 293 294 296 296 296 297 295 295 296 296 296 296 296 297 299 300 302 304 307 307 305 306 306 307 307 307 309 309 310 308 304
270 272 274 276 277 279 282 287 290 291 291 293 294 294 295 296 295 295 295 295 296 295 296 297 298 299 301 303 304 307 307 304 305 307 307 308 308 308 310 310 310 307 304
274 277 279 283 286 288 288 289 290 291 292 292 294 294 294 295 294 294 295 295 296 297 298 299 299 301 302 305 307 306 305 305 306 307 307 308 308 309 311 311 309 307 303
282 283 283 284 284 286 287 288 289 290 292 293 294 294 294 294 295 295 294 296 297 298 299 300 301 303 305 306 305 304 305 306 307 308 308 309 310 311 311 310 308 307 302
283 284 284 285 285 287 288 289 291 291 292 292 293 293 293 292 292 292 294 296 298 300 301 302 304 305 305 304 304 306 307 307 308 308 309 310 310 311 310 309 309 305 300
Height
5700 5698 5694 5691 5687 5683 5680 5678 5675 5673 5670 5668 5667 5665 5663 5661 5659 5656 5654 5651 5648 5646 5643 5639 5637 5635 5633 5630 5626 5622 5618 5616 5617 5619 5616 5613 5610 5607 5605 5604 5602 5599 5598
5682 5680 5677 5674 5671 5669 5667 5665 5662 5660 5658 5657 5655 5653 5651 5648 5646 5643 5641 5638 5635 5632 5630 5626 5625 5622 5618 5615 5613 5609 5604 5600 5600 5604 5599 5598 5595 5592 5590 5589 5588 5587 5585
5665 5663 5661 5660 5658 5657 5654 5652 5650 5648 5646 5644 5642 5640 5638 5636 5632 5629 5626 5624 5621 5618 5615 5612 5609 5607 5603 5600 5598 5595 5591 5588 5585 5583 5584 5580 5576 5575 5574 5572 5570 5570 5568
5650 5649 5648 5648 5646 5644 5642 5640 5638 5637 5634 5632 5629 5628 5626 5624 5620 5617 5613 5609 5606 5603 5600 5597 5594 5591 5589 5586 5582 5579 5576 5573 5570 5567 5565 5561 5556 5553 5550 5549 5554 5551 5550
5636 5635 5635 5634 5632 5631 5629 5627 5625 5623 5620 5618 5617 5615 5613 5610 5606 5602 5599 5596 5592 5590 5586 5583 5579 5576 5573 5570 5567 5564 5561 5558 5554 5551 5548 5545 5539 5534 5529 5528 5527 5526 5531
5623 5622 5621 5620 5619 5617 5615 5613 5611 5609 5607 5605 5603 5600 5597 5595 5590 5588 5585 5582 5578 5574 5571 5568 5565 5562 5559 5556 5551 5547 5543 5540 5537 5532 5529 5526 5521 5515 5512 5506 5502 5502 5505
5610 5609 5607 5606 5604 5602 5601 5599 5597 5595 5593 5591 5589 5586 5583 5580 5577 5575 5571 5567 5563 5560 5557 5554 5550 5547 5544 5542 5537 5531 5525 5519 5513 5509 5505 5499 5498 5490 5487 5486 5480 5476 5475
5596 5595 5594 5592 5591 5589 5587 5585 5584 5581 5578 5576 5573 5570 5568 5565 5563 5561 5556 5553 5548 5544 5541 5538 5534 5531 5527 5524 5520 5515 5507 5500 5494 5488 5480 5474 5466 5463 5454 5451 5446 5445 5450
5583 5582 5581 5580 5578 5576 5574 5572 5569 5567 5564 5560 5558 5556 5553 5551 5548 5546 5541 5538 5533 5528 5524 5520 5516 5512 5507 5503 5498 5492 5486 5478 5469 5461 5452 5443 5435 5427 5418 5414 5408 5406 5409
5570 5568 5567 5565 5564 5563 5561 5558 5555 5552 5549 5546 5544 5541 5538 5535 5533 5529 5525 5521 5518 5512 5506 5500 5495 5489 5482 5476 5471 5466 5460 5453 5446 5439 5428 5415 5404 5396 5384 5371 5365 5362 5363
5555 5554 5553 5553 5549 5548 5546 5543 5540 5537 5535 5532 5530 5527 5523 5519 5515 5512 5508 5504 5500 5493 5488 5481 5473 5466 5458 5450 5442 5435 5427 5420 5413 5405 5397 5386 5375 5365 5355 5344 5333 5323 5321
5541 5541 5540 5538 5533 5533 5531 5529 5526 5523 5520 5516 5513 5510 5507 5503 5500 5496 5490 5485 5481 5474 5467 5459 5450 5442 5434 5426 5416 5406 5397 5388 5380 5372 5361 5350 5342 5334 5327 5321 5317 5311 5304
5526 5526 5525 5523 5521 5518 5516 5514 5511 5507 5503 5500 5496 5493 5490 5486 5482 5478 5471 5465 5458 5451 5443 5435 5427 5419 5410 5400 5388 5378 5368 5359 5348 5339 5333 5325 5318 5313 5307 5302 5297 5293 5292
5511 5510 5509 5508 5506 5503 5501 5498 5494 5491 5488 5484 5480 5476 5472 5467 5462 5457 5450 5442 5436 5429 5420 5412 5403 5394 5384 5374 5363 5350 5339 5331 5324 5318 5314 5307 5301 5294 5287 5279 5276 5273 5272
5496 5495 5493 5491 5489 5487 5485 5482 5477 5474 5471 5467 5463 5458 5453 5447 5441 5435 5429 5421 5415 5408 5398 5389 5378 5368 5358 5347 5337 5329 5321 5314 5308 5302 5296 5291 5284 5277 5269 5260 5253 5250 5247
5480 5478 5477 5475 5473 5470 5467 5464 5460 5456 5453 5449 5445 5440 5434 5427 5420 5413 5406 5399 5391 5383 5374 5364 5354 5344 5334 5326 5319 5312 5305 5298 5292 5285 5278 5270 5263 5257 5249 5241 5232 5227 5224
5462 5461 5460 5458 5455 5452 5449 5445 5442 5438 5433 5429 5425 5419 5412 5406 5398 5393 5385 5375 5366 5358 5348 5339 5330 5321 5314 5307 5300 5295 5289 5281 5274 5267 5259 5250 5242 5235 5227 5220 5212 5206 5203
5446 5445 5442 5440 5437 5434 5431 5427 5422 5418 5413 5408 5403 5398 5392 5385 5377 5369 5361 5351 5342 5332 5325 5316 5308 5301 5295 5290 5284 5278 5272 5264 5257 5249 5240 5230 5221 5214 5207 5200 5192 5184 5179
5429 5427 5424 5421 5418 5415 5411 5407 5402 5397 5392 5386 5381 5376 5369 5360 5351 5343 5335 5328 5320 5311 5304 5297 5290 5283 5278 5273 5267 5261 5254 5246 5238 5230 5220 5211 5202 5195 5188 5179 5172 5165 5157
5410 5408 5405 5402 5399 5395 5391 5387 5382 5377 5371 5365 5358 5351 5344 5336 5327 5318 5310 5303 5296 5290 5285 5279 5273 5266 5261 5256 5250 5243 5236 5228 5219 5210 5201 5193 5184 5175 5167 5160 5151 5144 5139
5392 5389 5386 5383 5379 5375 5370 5366 5361 5356 5350 5343 5335 5328 5321 5315 5306 5298 5291 5285 5279 5274 5269 5264 5258 5252 5245 5238 5232 5225 5218 5209 5200 5191 5183 5175 5166 5158 5149 5140 5132 5123 5114
5372 5369 5366 5363 5359 5355 5351 5346 5340 5334 5327 5320 5312 5305 5298 5291 5286 5281 5274 5268 5263 5257 5251 5247 5242 5235 5229 5222 5214 5207 5199 5190 5182 5173 5165 5157 5148 5139 5131 5122 5113 5103 5094
5352 5349 5346 5342 5338 5333 5328 5322 5316 5310 5304 5298 5291 5284 5278 5273 5267 5263 5257 5251 5246 5240 5235 5230 5224 5218 5211 5203 5195 5187 5179 5170 5163 5154 5147 5139 5130 5121 5112 5104 5093 5085 5077
5331 5328 5323 5318 5313 5309 5305 5300 5294 5289 5283 5277 5273 5268 5262 5257 5251 5246 5240 5235 5230 5225 5219 5213 5206 5200 5193 5185 5176 5167 5158 5150 5143 5135 5127 5121 5112 5102 5093 5083 5074 5066 5059
5307 5303 5300 5296 5292 5288 5283 5278 5274 5270 5265 5260 5255 5251 5245 5240 5234 5229 5225 5220 5215 5209 5202 5195 5188 5182 5174 5165 5157 5149 5140 5131 5122 5114 5107 5099 5091 5082 5073 5064 5056 5049 5043
5287 5283 5280 5276 5272 5268 5265 5261 5257 5252 5248 5243 5239 5234 5229 5224 5219 5214 5209 5204 5199 5193 5186 5178 5170 5162 5154 5146 5138 5130 5121 5112 5104 5094 5087 5079 5071 5063 5053 5045 5038 5031 5026